Location: Biltmore Gardens
(41.6070°N, 83.4666°W)
Time: 22:39:16
(UTC+00:00)

A-11 Canister half - Pass Details

Date: 21 April 2021
Orbit: 1526 x 1682 km, 47.3° (Epoch: 13 May)

Event Time Altitude Azimuth Distance (km) Brightness Sun altitude
Rises 01:24:50 0° 292° (WNW) 4,932 13.8 -12.0°
Reaches altitude 10° 01:28:00 10° 294° (WNW) 3,947 12.7 -12.5°
Maximum altitude 01:38:14 83° 23° (NNE) 1,692 9.2 -14.1°
Enters shadow 01:46:10 19° 111° (ESE) 3,245 10.1 -15.4°
